星链-34236 (STARLINK-34236)

导读

STARLINK-34236是美国(US)SpaceX星链星座的一员,于2025年7月2日发射升空,属于星链互联网卫星项目。星链项目旨在构建全球卫星互联网星座,为全球偏远、欠发达地区提供低成本高速互联网接入,该卫星进一步扩充了星链星座的在轨规模,提升星座覆盖密度与网络服务能力。

Basic Information
目录编号:
64743
目录名称:
STARLINK-34236
国际标识:
2025-144V
轨道中心:
EARTH
卫星名称:
星链-34236
卫星全名:
星链-34236 (STARLINK-34236)
卫星状态:
在轨 (已飞行429 天)
发射日期:
2025-07-02 UTC
国别 :
美国 (US)
星等 :
--
Orbit Information
数据来源 国际轨道数据 AOE轨道数据
星历时间 2026-09-03T21:15:20+0800
16小时前
查看轨道信息
2026-09-02T15:00:00+0800
1天前
查看轨道信息
半长轴 6840.835km 6840.958km
偏心率 0.0001914 0.0000849
轨道倾角 53.158° 53.157°
近地点辐角 91.465° 88.411°
升交点赤经 72.742° 78.638°
平近点角 268.657° 144.188°
近地点 461.388km 462.24km
远地点 464.008km 463.402km
周期 93.848分钟 93.850分钟
每日圈数 15.344019 15.343605
Detailed Information
固有亮度:
5
最大亮度:
2.5
卫星平台:
Starlink V1.0
覆盖范围:
全球
运营商:
太空探索技术公司
运营商所在国:
美国
制造商(研发单位):
太空探索技术公司
制造商所在国:
美国
使用方式:
暂无
Satellite Introduction
Starlink 计划是 SpaceX 推出的全球卫星互联网项目,通过发射低轨道卫星,为全球尤其是偏远地区提供高速、低延迟的互联网服务。自 2019 年起,Starlink 已部署数千颗卫星,旨在缩小全球数字鸿沟,推动互联网普及。该项目还为军事、航空等行业提供通信支持,带来广泛经济效益。
2D Orbit Map
3D Orbit Map
Orbit Altitude Analysis Chart
Orbit Inclination Analysis Chart
Orbit Comprehensive Analysis Chart
View Comprehensive Chart
Conjunction Data List
Event ID Objects TCA Miss Dist (km) Collision Risk Probability Collision Risk Index (CRI) Action
CDM_260829-082806-474306-610921
2026-08-29T
08:28:10+0000
1.127 km
极远距离
1.129923E-5 中风险 0.56
CDM_260829-100106-474306-610921
2026-08-29T
10:01:57+0000
1.775 km
极远距离
2.595278E-6 低风险 0.43
CDM_260905-115405-015906-474321
2026-09-05T
11:54:43+0000
2.594 km
极远距离
1.250884E-6 低风险 0.37